TimeICT,TemperatureF,Dew PointF,Humidity,Sea Level PressureIn,VisibilityMPH,Wind Direction,Wind SpeedMPH,Gust SpeedMPH,PrecipitationIn,Events,Conditions,WindDirDegrees,DateUTC
12:00 AM,80.6,77.0,89,29.74,5.6,Calm,Calm,-,N/A,Rain,Light Rain,0,2013-08-25 17:00:00
12:30 AM,80.6,77.0,89,29.74,5.6,Calm,Calm,-,N/A,Rain,Light Rain,0,2013-08-25 17:30:00
1:00 AM,80.6,77.0,89,29.74,5.6,Calm,Calm,-,N/A,Rain,Light Rain,0,2013-08-25 18:00:00
7:00 AM,80.6,77.0,89,29.74,5.6,Calm,Calm,-,N/A,,Mostly Cloudy,0,2013-08-26 00:00:00
7:30 AM,80.6,77.0,89,29.74,5.6,Calm,Calm,-,N/A,,Mostly Cloudy,0,2013-08-26 00:30:00
8:00 AM,80.6,77.0,89,29.74,5.6,Calm,Calm,-,N/A,,Mostly Cloudy,0,2013-08-26 01:00:00
8:30 AM,82.4,77.0,84,29.77,6.2,Calm,Calm,-,N/A,,Mostly Cloudy,0,2013-08-26 01:30:00
9:00 AM,82.4,75.2,79,29.77,6.2,Variable,2.3,-,N/A,,Mostly Cloudy,0,2013-08-26 02:00:00
9:30 AM,84.2,75.2,74,29.74,6.2,WSW,5.8,-,N/A,,Mostly Cloudy,250,2013-08-26 02:30:00
10:00 AM,86.0,77.0,74,29.74,6.2,West,5.8,-,N/A,,Mostly Cloudy,260,2013-08-26 03:00:00
10:30 AM,84.2,77.0,79,29.74,6.2,West,5.8,-,N/A,,Mostly Cloudy,260,2013-08-26 03:30:00
11:00 AM,86.0,75.2,70,29.74,6.2,West,6.9,-,N/A,,Scattered Clouds,270,2013-08-26 04:00:00
11:30 AM,87.8,77.0,70,29.74,6.2,West,4.6,-,N/A,,Scattered Clouds,260,2013-08-26 04:30:00
12:00 PM,87.8,77.0,70,29.74,6.2,West,5.8,-,N/A,,Scattered Clouds,280,2013-08-26 05:00:00
1:30 PM,87.8,73.4,62,29.68,6.2,NW,6.9,-,N/A,,Scattered Clouds,310,2013-08-26 06:30:00
2:00 PM,87.8,73.4,62,29.68,6.2,NW,9.2,-,N/A,,Scattered Clouds,320,2013-08-26 07:00:00
2:30 PM,87.8,73.4,62,29.65,6.2,ESE,8.1,-,N/A,,Scattered Clouds,120,2013-08-26 07:30:00
3:00 PM,87.8,75.2,66,29.65,6.2,NW,8.1,-,N/A,,Scattered Clouds,320,2013-08-26 08:00:00
3:30 PM,87.8,75.2,66,29.62,6.2,NNW,6.9,-,N/A,,Scattered Clouds,330,2013-08-26 08:30:00
4:00 PM,89.6,73.4,59,29.62,6.2,NW,6.9,-,N/A,,Scattered Clouds,320,2013-08-26 09:00:00
4:30 PM,87.8,73.4,62,29.62,6.2,NW,6.9,-,N/A,,Scattered Clouds,310,2013-08-26 09:30:00
5:00 PM,87.8,73.4,62,29.62,6.2,NW,6.9,-,N/A,,Scattered Clouds,320,2013-08-26 10:00:00
5:30 PM,87.8,75.2,66,29.62,6.2,NW,5.8,-,N/A,,Scattered Clouds,320,2013-08-26 10:30:00
6:30 PM,86.0,75.2,70,29.65,5.6,Variable,2.3,-,N/A,,Scattered Clouds,0,2013-08-26 11:30:00
7:00 PM,82.4,75.2,79,29.65,5.6,South,3.5,-,N/A,,Scattered Clouds,180,2013-08-26 12:00:00
7:30 PM,82.4,75.2,79,29.68,5.6,South,3.5,-,N/A,,Scattered Clouds,180,2013-08-26 12:30:00
8:00 PM,82.4,77.0,84,29.68,5.6,SSW,1.2,-,N/A,,Scattered Clouds,210,2013-08-26 13:00:00
8:30 PM,82.4,77.0,84,29.68,5.6,Calm,Calm,-,N/A,,Scattered Clouds,0,2013-08-26 13:30:00
9:00 PM,82.4,73.4,74,29.71,5.6,WSW,9.2,-,N/A,,Scattered Clouds,240,2013-08-26 14:00:00
9:30 PM,78.8,75.2,89,29.74,5.6,WSW,6.9,-,N/A,,Scattered Clouds,250,2013-08-26 14:30:00
10:00 PM,78.8,75.2,89,29.74,5.6,WSW,4.6,-,N/A,,Scattered Clouds,250,2013-08-26 15:00:00
10:30 PM,78.8,75.2,89,29.74,5.6,WSW,1.2,-,N/A,,Scattered Clouds,250,2013-08-26 15:30:00
11:00 PM,80.6,77.0,89,29.74,5.0,Calm,Calm,-,N/A,Rain,Light Rain,0,2013-08-26 16:00:00
11:30 PM,80.6,77.0,89,29.74,5.0,Calm,Calm,-,N/A,Rain,Light Rain,0,2013-08-26 16:30:00